Location: Unspecified
(35.6961°N, 0.0000°E)
Time: 13:37:54
(UTC+00:00)

Altair - Pass Details

Date: 19 May 2019
Orbit: 1501 x 1683 km, 47.2° (Epoch: 19 June)

Event Time Altitude Azimuth Distance (km) Brightness Sun altitude
Rises 02:50:35 0° 199° (SSW) 4,871 - -21.0°
Reaches altitude 10° 02:54:05 10° 190° (S) 3,905 - -20.5°
Exits shadow 02:55:49 16° 184° (S) 3,465 8.9 -20.2°
Maximum altitude 03:02:49 35° 129° (SE) 2,474 8.6 -19.2°
Drops below altitude 10° 03:11:37 10° 69° (ENE) 3,942 10.7 -17.9°
Sets 03:15:08 0° 61° (ENE) 4,923 11.7 -17.4°
